Wind_Speed
55 55 52 53 48 44 42 36 34 30 29 27 24 21 18 16 15 17 22 23 22 20 14 18 18 16 18 18 25 20 17 12 30 33 25 42 46 51 54 66 76 61 57 36 40 49 57 45 42 48 46 52 51 48
53 51 49 52 43 35 34 35 32 30 29 27 24 20 18 16 15 15 13 12 12 11 9 17 19 19 17 18 20 31 19 5 23 30 15 20 42 49 51 61 84 66 57 44 42 41 44 40 45 48 56 58 52 51
49 46 45 45 38 32 34 32 31 29 28 27 25 21 18 17 16 14 9 10 10 7 9 11 10 12 11 15 18 28 28 14 28 32 23 20 29 31 46 62 52 71 64 48 50 55 51 53 55 55 48 53 52 53
48 42 39 39 35 32 32 34 34 29 30 29 29 31 26 22 17 13 11 10 10 7 4 3 3 4 7 13 18 25 19 23 21 12 26 20 23 29 48 37 51 71 61 47 55 52 50 56 62 55 50 50 58 57
45 36 35 35 36 34 33 37 35 30 34 33 31 31 31 28 26 23 20 15 11 9 6 5 1 3 10 15 26 23 21 14 14 10 26 28 21 32 21 38 54 58 55 56 58 53 56 54 53 56 60 59 53 53
40 33 32 35 34 34 36 36 35 34 30 27 23 24 24 24 23 22 21 20 17 14 12 11 7 20 12 13 22 25 21 17 4 19 17 24 23 27 31 37 58 39 58 55 62 56 48 48 54 40 54 58 46 51
35 32 34 33 34 36 38 38 35 31 33 35 32 32 28 22 18 20 19 14 14 12 12 13 17 24 20 12 14 18 15 9 21 19 19 26 34 44 43 46 19 33 62 49 52 59 63 60 57 49 37 52 54 48
39 35 33 33 35 37 36 34 34 34 36 32 29 29 30 31 25 26 21 12 13 13 14 15 15 21 25 17 8 10 10 15 21 20 23 37 33 23 37 40 14 31 47 44 41 45 45 43 43 48 51 58 42 40
35 34 33 32 32 33 33 32 31 35 44 42 37 33 31 32 27 23 26 29 25 19 13 21 17 12 20 19 14 5 10 23 28 25 18 21 26 19 28 43 13 25 34 37 43 33 42 44 49 40 38 44 45 41
31 34 33 34 31 27 30 29 29 31 34 35 34 30 36 34 29 27 31 34 32 27 24 18 19 16 12 10 9 13 17 13 21 24 21 13 13 10 46 32 12 29 35 25 37 23 19 31 42 39 38 35 35 37
27 31 33 33 30 26 24 25 27 30 31 28 27 46 36 36 30 26 32 31 33 35 24 23 20 17 21 21 18 9 12 16 20 26 20 12 11 19 26 27 15 15 15 19 19 14 14 13 13 14 20 21 23 25
28 25 26 30 28 24 19 20 23 23 27 31 36 26 38 35 34 33 30 26 28 28 33 25 17 19 17 18 18 19 21 18 18 18 21 20 16 15 18 24 18 17 15 15 18 10 15 11 10 12 15 18 23 27
26 26 27 28 28 27 21 18 18 20 24 28 26 24 32 35 36 30 30 33 27 26 31 24 11 21 20 23 24 21 15 23 30 33 27 28 31 22 26 23 15 14 14 10 17 9 7 6 5 11 15 15 22 23
25 26 26 26 29 28 22 19 14 16 19 21 22 30 33 37 38 30 30 30 22 22 25 30 28 25 24 25 22 22 32 35 35 36 40 33 28 27 24 20 19 20 17 10 6 2 6 3 4 4 3 6 7 16
24 27 27 25 25 24 23 22 16 12 15 14 18 27 27 29 31 25 36 24 27 27 24 24 23 23 22 30 40 43 38 36 32 26 23 22 24 21 10 8 9 10 13 11 7 7 6 6 7 8 10 11 13 15
23 25 25 22 21 21 21 22 25 20 12 12 18 19 18 21 23 25 30 26 29 31 30 25 32 35 37 38 36 35 35 32 25 19 17 18 20 18 14 12 14 9 7 10 9 10 8 7 6 5 5 4 5 8
24 23 21 20 20 20 22 23 17 15 18 20 18 16 15 18 20 20 23 24 25 21 31 32 35 34 35 33 30 28 27 22 19 16 14 15 15 12 12 13 12 8 8 7 4 4 5 3 2 4 5 5 4 7
22 21 20 20 19 21 22 21 20 21 24 21 20 18 16 14 15 15 20 24 20 17 22 24 27 27 32 27 19 17 14 14 11 10 13 13 8 7 9 8 7 6 5 4 4 6 6 5 7 9 11 12 13 13
23 23 21 21 20 21 19 21 21 23 24 22 22 23 23 20 16 16 17 15 14 17 13 8 17 22 20 19 16 16 16 11 16 11 8 7 4 5 5 6 7 9 10 8 7 7 8 8 9 10 13 13 15 14
25 25 24 21 20 19 17 22 25 24 24 27 28 24 23 23 23 18 13 12 13 11 8 5 8 9 7 7 7 6 7 5 4 6 7 5 5 6 7 8 9 9 9 12 13 11 13 15 16 18 16 13 17 20
24 22 22 21 20 21 19 20 23 24 23 23 24 22 22 25 24 23 20 20 15 11 10 10 11 9 7 7 8 8 8 7 6 8 8 9 13 14 12 11 12 13 16 16 14 14 15 19 20 20 20 20 23 23
20 21 23 18 13 15 17 19 17 16 19 21 21 19 18 18 19 19 22 16 15 17 15 13 13 11 8 6 6 8 9 9 10 11 12 15 16 18 18 18 18 17 17 20 21 20 18 19 22 23 23 25 26 26
19 22 19 15 17 19 19 19 17 16 16 14 15 15 17 17 17 17 16 18 21 20 17 14 14 15 16 15 14 12 12 13 15 16 16 17 19 22 22 22 22 20 19 22 24 26 25 25 26 27 28 27 28 27
14 13 12 12 16 17 18 20 20 15 13 12 12 11 12 16 17 16 13 17 23 21 19 18 18 19 19 19 20 22 23 23 23 22 24 26 27 29 30 30 30 30 31 31 31 32 32 33 34 36 37 39 40 40
12 14 10 9 14 19 19 20 20 17 15 16 18 17 15 16 13 20 21 26 25 25 25 24 23 22 21 21 20 21 24 26 28 28 28 28 29 29 32 35 34 38 39 40 41 43 45 46 46 45 44 45 46 47
10 11 10 11 17 14 19 19 19 19 16 15 16 16 16 15 19 22 23 24 26 27 27 28 29 31 32 31 30 28 28 30 32 33 34 34 33 34 36 36 36 39 42 43 44 46 47 47 47 48 49 50 51 51
7 3 11 12 12 13 18 20 21 21 19 18 18 19 19 19 20 22 24 27 29 31 33 33 33 34 37 37 37 36 34 35 36 37 37 36 35 34 35 35 34 35 36 37 39 42 43 43 44 45 46 47 48 49
22 16 13 12 13 15 20 21 20 22 24 23 23 24 24 23 23 24 27 32 34 35 35 35 30 28 28 26 26 24 22 23 23 24 24 24 25 26 26 27 26 27 28 28 29 29 31 32 33 34 34 35 35 36
13 16 16 18 20 20 19 20 21 22 22 23 25 26 27 26 26 29 31 33 36 34 28 26 26 28 27 26 25 24 22 24 23 22 21 22 23 24 25 26 27 27 28 29 29 28 29 29 28 28 28 28 29 30
12 14 15 18 20 19 19 19 20 23 25 22 25 27 27 26 29 31 34 36 36 28 24 26 28 29 26 25 25 24 22 22 21 20 21 20 21 22 22 23 24 25 26 27 29 30 31 31 31 31 30 30 30 29
15 15 15 14 14 16 18 20 23 23 24 22 26 30 31 32 34 35 36 38 38 32 24 24 26 29 29 27 25 24 23 23 22 22 22 21 22 22 24 25 26 27 28 29 30 31 31 31 31 30 29 28 27 26
11 12 14 16 17 19 20 22 23 25 25 25 28 31 32 33 33 35 36 36 38 35 29 25 25 29 29 29 27 25 24 24 23 23 23 24 24 24 25 27 28 29 30 30 30 30 30 30 29 28 26 25 23 22
12 13 15 18 19 19 20 20 22 24 25 26 29 31 33 35 36 35 37 37 38 38 35 30 27 28 29 29 28 24 23 24 25 26 27 27 27 28 27 27 27 28 29 30 30 30 29 28 27 26 24 22 21 20
Wind_Direction
343 344 347 347 338 337 344 349 352 351 348 349 349 345 339 329 315 290 281 281 284 279 269 258 252 252 247 246 227 218 203 224 227 234 253 210 209 213 215 214 206 204 203 198 203 213 223 218 210 210 209 220 218 223
346 345 346 348 349 354 359 358 0 2 0 0 359 356 351 346 338 326 308 298 300 299 259 258 255 258 258 245 226 222 205 221 182 218 209 215 195 212 209 211 216 203 200 199 189 199 209 191 194 203 213 221 224 228
346 349 351 353 359 3 6 8 9 7 6 4 7 6 3 358 353 351 331 315 316 299 266 268 267 253 234 227 220 213 211 167 181 195 197 194 200 190 203 209 216 205 201 199 185 194 201 192 193 202 220 219 218 223
352 358 2 4 11 18 15 13 9 11 11 14 11 13 16 13 6 2 2 344 347 357 327 286 235 185 193 196 207 206 175 136 149 171 181 157 175 177 195 205 211 208 202 200 190 193 194 193 197 209 209 224 225 227
2 9 13 16 20 20 13 10 9 14 14 10 13 13 18 25 28 33 28 20 19 27 30 27 82 104 141 167 177 177 185 133 119 166 172 189 189 188 196 179 199 195 207 196 198 199 209 210 214 218 220 228 229 225
7 14 15 18 20 21 15 14 13 11 14 24 31 35 34 28 32 37 41 35 36 42 53 64 109 101 112 139 181 193 184 178 136 170 152 184 185 187 168 184 189 187 193 205 206 206 206 213 220 223 221 222 230 218
14 14 23 23 26 23 20 17 13 19 24 29 28 29 26 31 47 63 52 45 44 61 77 72 71 67 107 128 181 196 174 156 118 143 191 186 191 195 196 184 187 195 208 210 200 208 215 226 227 227 200 213 220 216
15 17 23 29 31 24 18 22 29 36 44 43 44 44 42 36 31 34 48 46 67 70 64 61 63 76 78 78 110 193 189 131 116 111 177 191 198 201 194 197 178 200 200 193 205 212 216 220 226 232 224 232 221 221
14 16 22 30 32 22 19 29 34 39 42 50 41 39 34 38 44 45 43 49 45 58 74 69 66 102 87 81 89 175 140 113 111 115 126 169 203 219 215 200 111 175 192 195 206 216 223 230 232 229 263 216 213 221
11 15 19 19 20 24 19 22 28 35 38 46 43 42 42 40 40 45 48 49 57 58 57 72 73 82 65 68 66 133 120 88 76 102 104 131 159 185 207 189 148 177 196 178 187 206 208 219 231 235 221 211 212 214
3 6 6 7 7 10 21 13 12 16 15 26 28 34 48 46 44 40 32 48 50 54 54 37 57 63 97 107 108 91 59 79 105 119 122 106 131 156 200 210 175 160 158 152 164 183 184 179 197 200 193 207 220 223
1 1 4 1 0 2 8 2 5 6 8 12 10 6 21 44 42 43 35 30 33 35 31 39 84 92 86 63 70 80 107 116 107 124 110 98 105 138 144 148 166 174 169 158 174 182 183 209 221 224 227 236 241 245
6 4 4 5 4 8 0 356 1 355 3 14 11 42 35 38 32 43 32 16 11 15 58 66 63 73 80 82 97 113 113 116 116 114 97 91 86 105 107 127 135 137 160 169 156 164 139 143 168 238 236 233 235 229
5 7 6 3 8 6 10 7 357 350 9 27 23 36 34 27 35 21 15 30 47 61 72 90 90 91 104 105 108 109 114 120 107 114 107 104 100 105 109 120 125 133 143 153 154 177 225 207 254 277 202 211 230 252
0 2 5 11 10 5 9 18 18 19 36 31 29 42 37 31 31 30 22 75 63 82 86 86 90 89 98 109 111 108 98 98 97 97 81 77 79 78 97 133 132 145 161 171 174 187 191 203 225 253 264 256 240 255
0 3 8 15 20 19 16 19 22 22 32 37 42 47 39 35 35 37 49 72 76 75 65 91 101 94 102 111 112 100 93 94 95 90 81 77 69 70 72 109 96 98 125 124 131 140 149 168 177 156 169 184 213 216
8 11 16 24 29 35 37 34 19 42 47 48 41 40 34 33 35 47 51 72 74 74 86 97 97 88 91 95 87 84 90 94 92 92 86 74 72 72 48 48 60 61 65 70 101 129 136 146 212 237 242 253 264 274
20 25 31 37 42 45 43 48 40 48 55 55 60 55 51 51 45 53 70 73 77 88 72 87 85 87 79 69 70 83 83 85 83 88 84 70 62 40 33 43 31 26 35 22 314 300 294 274 256 247 245 239 248 252
31 36 40 39 40 45 37 49 52 57 60 67 67 61 60 70 75 80 80 76 87 83 70 78 89 83 77 81 76 78 88 90 76 94 102 115 60 35 357 339 320 309 309 311 297 300 295 291 283 265 257 266 265 257
35 37 41 48 51 51 49 58 64 65 66 67 67 65 60 58 62 69 70 78 77 55 25 23 74 70 68 63 60 57 73 78 57 34 29 6 299 301 299 295 293 284 288 296 297 301 304 297 291 289 288 284 273 272
36 39 44 50 55 58 64 68 63 63 65 68 67 65 63 61 54 48 48 44 33 19 21 32 39 28 11 7 1 346 332 338 330 328 319 308 308 304 306 300 291 295 298 295 287 280 280 282 281 278 281 280 279 277
41 44 45 34 34 33 37 39 40 43 52 59 56 50 43 37 35 35 29 21 21 24 25 24 15 9 7 3 349 337 321 312 307 305 301 298 295 293 295 298 298 290 281 280 282 280 275 271 271 270 270 272 272 274
42 47 43 37 42 42 37 30 31 31 29 34 34 43 43 39 31 32 21 18 19 15 8 3 358 350 343 340 335 329 319 312 307 303 299 297 295 294 293 291 290 290 290 288 289 289 287 286 284 283 283 281 281 281
30 21 18 30 33 24 18 21 31 34 27 22 360 349 17 3 5 9 19 10 356 351 346 339 334 330 325 321 322 320 314 308 304 299 298 298 299 300 299 297 296 295 292 288 285 284 286 286 284 284 283 283 282 279
20 10 12 19 13 11 27 30 26 19 22 23 11 5 345 342 327 1 353 348 347 344 342 339 334 330 324 319 315 313 306 304 301 299 297 295 296 298 293 291 292 293 291 291 292 291 289 288 289 290 288 285 283 283
1 3 24 20 15 25 20 27 32 27 18 10 9 6 356 343 342 341 339 336 335 334 332 329 326 321 316 313 310 309 304 301 299 297 297 297 297 296 294 294 295 293 294 294 293 291 290 290 288 285 285 284 283 285
307 80 38 37 26 25 28 19 16 10 6 6 5 1 355 347 344 342 341 339 333 328 323 320 318 315 309 311 309 307 307 303 301 300 300 301 301 301 300 301 299 298 298 297 295 294 292 289 287 285 283 283 284 284
69 57 46 33 35 30 25 20 15 15 17 16 12 7 1 357 352 347 340 337 335 331 326 323 329 328 330 331 327 328 330 320 321 320 320 318 316 315 316 315 315 315 314 314 313 311 307 304 302 299 298 296 296 294
65 45 41 38 32 28 22 17 12 13 13 12 9 4 359 355 351 347 346 345 343 343 342 345 344 345 344 338 336 336 336 327 328 328 328 329 327 325 322 321 321 321 320 319 319 319 315 312 310 308 307 307 307 306
32 39 37 32 26 19 15 11 6 4 3 3 1 357 357 357 353 351 352 352 354 351 348 351 350 349 350 345 343 345 345 338 333 330 329 331 333 332 331 329 329 328 326 324 323 321 318 317 314 313 312 313 314 316
14 13 14 7 4 3 6 7 3 358 358 356 355 355 355 356 355 355 356 355 354 353 345 350 353 351 349 346 341 339 341 339 335 333 330 329 328 328 328 328 327 326 326 326 325 322 320 318 316 315 315 316 318 321
12 5 0 352 351 348 347 348 352 358 357 356 354 355 354 354 355 355 356 356 354 356 348 339 345 349 349 348 345 338 335 338 335 332 329 326 326 327 326 326 327 327 326 324 323 322 323 323 323 321 319 319 321 325
357 352 347 346 353 359 355 354 352 352 353 354 355 354 355 355 355 355 355 356 354 354 353 349 341 344 347 348 348 347 341 337 335 333 334 333 331 330 331 331 331 332 332 332 331 330 330 329 328 327 325 323 320 322
Height
5654 5643 5631 5619 5606 5597 5587 5578 5568 5560 5553 5546 5540 5534 5530 5526 5523 5522 5519 5517 5516 5516 5518 5516 5517 5519 5520 5522 5524 5527 5531 5535 5539 5548 5553 5560 5571 5580 5594 5610 5617 5618 5627 5646 5660 5670 5683 5697 5712 5717 5721 5724 5732 5739
5651 5639 5628 5616 5604 5595 5587 5578 5569 5561 5554 5547 5540 5534 5529 5525 5521 5518 5515 5514 5512 5511 5513 5511 5512 5515 5515 5516 5518 5521 5526 5528 5533 5545 5552 5559 5568 5575 5587 5599 5601 5614 5630 5635 5652 5666 5675 5689 5699 5706 5709 5713 5723 5731
5648 5637 5626 5615 5605 5596 5588 5579 5571 5564 5557 5549 5542 5535 5530 5526 5521 5517 5514 5512 5510 5509 5509 5508 5509 5509 5510 5510 5513 5519 5522 5527 5531 5539 5546 5552 5561 5573 5579 5590 5599 5611 5620 5630 5641 5654 5662 5675 5680 5690 5698 5705 5710 5716
5647 5635 5625 5616 5607 5598 5591 5584 5576 5568 5560 5553 5545 5539 5533 5527 5522 5518 5515 5512 5510 5509 5508 5507 5505 5506 5507 5509 5512 5516 5520 5526 5532 5537 5542 5548 5557 5564 5576 5584 5593 5607 5616 5627 5636 5647 5656 5660 5671 5680 5687 5691 5703 5710
5647 5637 5628 5619 5611 5603 5595 5588 5579 5572 5565 5558 5550 5543 5538 5532 5526 5521 5518 5515 5512 5512 5510 5509 5509 5509 5511 5516 5518 5519 5521 5526 5530 5535 5538 5549 5555 5563 5567 5572 5581 5601 5610 5622 5633 5644 5650 5660 5667 5670 5676 5679 5689 5698
5650 5640 5632 5624 5615 5607 5599 5593 5585 5578 5570 5563 5556 5550 5544 5538 5533 5528 5525 5521 5519 5517 5515 5514 5514 5515 5516 5519 5523 5525 5530 5533 5534 5538 5545 5549 5555 5561 5569 5577 5589 5598 5610 5621 5632 5640 5646 5650 5658 5664 5668 5672 5682 5688
5654 5644 5636 5628 5620 5613 5605 5600 5592 5583 5575 5569 5562 5557 5551 5546 5541 5536 5534 5530 5525 5524 5523 5522 5520 5520 5523 5524 5526 5530 5535 5536 5539 5543 5549 5556 5561 5565 5574 5583 5590 5595 5606 5616 5625 5634 5640 5643 5647 5654 5640 5651 5668 5680
5658 5649 5641 5633 5626 5619 5613 5607 5599 5589 5583 5576 5568 5562 5556 5550 5546 5542 5539 5536 5534 5531 5530 5529 5527 5527 5528 5531 5534 5536 5538 5540 5545 5551 5557 5563 5566 5571 5578 5585 5590 5596 5604 5612 5621 5628 5632 5630 5642 5648 5642 5654 5666 5675
5660 5653 5646 5639 5632 5626 5619 5614 5607 5598 5592 5586 5579 5571 5565 5559 5553 5550 5546 5543 5540 5540 5538 5537 5535 5535 5535 5539 5541 5540 5543 5548 5553 5558 5561 5567 5571 5575 5580 5586 5588 5597 5602 5610 5617 5623 5629 5632 5636 5639 5644 5645 5652 5664
5663 5656 5649 5642 5637 5632 5625 5619 5613 5607 5600 5593 5585 5579 5572 5565 5559 5556 5555 5551 5549 5548 5546 5544 5544 5543 5543 5543 5546 5547 5551 5553 5557 5563 5569 5575 5576 5577 5579 5584 5591 5599 5604 5605 5611 5620 5622 5625 5631 5634 5637 5643 5651 5658
5665 5659 5651 5645 5640 5635 5630 5624 5618 5613 5608 5600 5591 5586 5579 5573 5568 5564 5559 5556 5554 5555 5554 5552 5551 5551 5550 5550 5552 5554 5557 5561 5564 5568 5571 5573 5575 5579 5585 5589 5595 5597 5601 5606 5612 5618 5622 5625 5629 5632 5636 5642 5646 5652
5666 5660 5655 5648 5642 5636 5631 5626 5622 5618 5613 5605 5599 5592 5588 5579 5576 5572 5569 5566 5562 5560 5557 5558 5557 5558 5558 5558 5560 5562 5564 5567 5570 5574 5575 5577 5581 5585 5588 5590 5594 5600 5603 5607 5612 5614 5619 5622 5627 5631 5635 5638 5643 5647
5667 5661 5656 5650 5643 5637 5633 5628 5624 5620 5616 5610 5608 5598 5591 5584 5587 5580 5576 5575 5572 5567 5564 5564 5565 5564 5565 5565 5567 5568 5570 5573 5576 5581 5582 5586 5589 5590 5592 5596 5599 5602 5603 5609 5612 5616 5619 5622 5625 5628 5631 5635 5639 5640
5668 5663 5657 5651 5644 5638 5635 5630 5626 5623 5619 5616 5611 5604 5597 5591 5589 5590 5586 5581 5577 5573 5572 5571 5571 5571 5571 5572 5574 5575 5578 5582 5585 5588 5592 5595 5597 5597 5599 5601 5601 5604 5607 5610 5612 5616 5619 5622 5624 5626 5629 5631 5634 5635
5669 5663 5658 5651 5646 5641 5635 5632 5628 5625 5622 5621 5617 5610 5607 5606 5602 5597 5593 5591 5587 5583 5582 5582 5580 5580 5580 5580 5583 5586 5589 5591 5595 5598 5600 5601 5601 5603 5603 5605 5604 5606 5610 5612 5614 5616 5619 5621 5622 5623 5625 5627 5629 5630
5670 5664 5658 5654 5649 5643 5639 5634 5630 5628 5626 5623 5620 5618 5617 5615 5612 5608 5604 5601 5598 5595 5595 5591 5590 5590 5591 5592 5596 5596 5599 5601 5605 5606 5607 5607 5607 5610 5610 5609 5609 5610 5613 5614 5615 5618 5619 5620 5621 5623 5625 5626 5627 5629
5671 5666 5661 5656 5651 5647 5643 5638 5637 5632 5628 5625 5624 5623 5621 5620 5618 5615 5614 5609 5608 5609 5607 5604 5601 5600 5603 5604 5606 5607 5608 5611 5612 5613 5613 5613 5613 5613 5613 5613 5613 5616 5617 5616 5617 5619 5621 5621 5622 5622 5624 5626 5627 5627
5672 5668 5663 5659 5655 5651 5648 5645 5641 5635 5632 5632 5630 5627 5625 5624 5623 5622 5621 5621 5622 5618 5618 5615 5613 5612 5612 5614 5615 5615 5616 5616 5617 5617 5617 5616 5615 5615 5614 5614 5615 5616 5618 5617 5617 5617 5618 5619 5619 5621 5621 5623 5624 5625
5676 5671 5668 5664 5660 5656 5655 5651 5647 5643 5639 5638 5636 5634 5631 5629 5627 5627 5627 5627 5626 5625 5625 5625 5621 5619 5620 5621 5621 5621 5620 5620 5620 5619 5619 5618 5617 5618 5617 5618 5617 5615 5615 5616 5617 5618 5617 5617 5616 5617 5618 5618 5618 5619
5681 5677 5673 5670 5666 5663 5662 5658 5654 5651 5649 5646 5643 5642 5640 5637 5634 5634 5633 5632 5631 5631 5631 5628 5626 5624 5625 5625 5625 5624 5624 5624 5622 5621 5620 5619 5618 5617 5617 5617 5618 5617 5616 5615 5614 5614 5613 5612 5611 5610 5611 5613 5612 5611
5686 5683 5679 5676 5674 5671 5669 5665 5662 5659 5656 5654 5651 5650 5649 5646 5644 5642 5641 5638 5638 5636 5634 5632 5632 5631 5629 5629 5627 5626 5625 5624 5623 5623 5622 5620 5619 5618 5618 5618 5618 5616 5614 5613 5613 5613 5613 5610 5608 5608 5608 5607 5605 5605
5691 5686 5682 5682 5680 5677 5674 5671 5668 5666 5664 5660 5658 5656 5654 5652 5650 5649 5645 5645 5643 5638 5637 5635 5633 5632 5632 5631 5630 5627 5626 5624 5622 5620 5619 5617 5615 5614 5613 5612 5612 5612 5612 5609 5608 5607 5606 5605 5604 5602 5602 5600 5598 5597
5694 5690 5689 5688 5684 5681 5679 5675 5671 5668 5666 5664 5662 5659 5658 5656 5654 5651 5650 5647 5645 5643 5641 5639 5637 5634 5631 5628 5627 5626 5625 5623 5621 5618 5616 5614 5612 5610 5610 5608 5606 5606 5605 5603 5600 5598 5597 5596 5593 5591 5591 5591 5588 5586
5697 5695 5694 5691 5687 5685 5682 5678 5674 5671 5669 5667 5664 5660 5658 5657 5655 5652 5650 5649 5647 5644 5641 5637 5635 5631 5629 5626 5624 5621 5618 5616 5614 5612 5609 5607 5604 5601 5600 5598 5596 5595 5592 5591 5589 5588 5585 5583 5582 5580 5579 5576 5573 5570
5699 5697 5695 5692 5690 5686 5683 5680 5677 5674 5671 5668 5665 5662 5661 5658 5653 5651 5649 5645 5642 5639 5636 5634 5631 5628 5625 5621 5619 5617 5612 5608 5604 5601 5601 5599 5597 5596 5591 5588 5588 5582 5580 5578 5576 5573 5571 5568 5567 5564 5560 5558 5556 5552
5700 5698 5696 5693 5690 5688 5685 5682 5679 5677 5674 5670 5667 5664 5661 5657 5654 5651 5647 5644 5640 5636 5632 5627 5623 5618 5613 5610 5608 5606 5603 5598 5593 5589 5588 5587 5585 5580 5577 5576 5575 5567 5565 5564 5559 5556 5554 5551 5548 5545 5543 5539 5535 5535
5698 5696 5696 5694 5692 5690 5687 5684 5681 5679 5676 5672 5668 5665 5661 5657 5654 5650 5646 5641 5637 5632 5626 5621 5616 5611 5605 5601 5596 5593 5589 5584 5580 5577 5574 5573 5570 5565 5562 5560 5558 5553 5550 5548 5543 5540 5537 5532 5528 5525 5522 5518 5516 5514
5698 5698 5698 5697 5693 5691 5688 5686 5684 5680 5676 5672 5669 5665 5661 5657 5653 5649 5644 5639 5632 5626 5618 5611 5607 5601 5597 5593 5588 5585 5581 5576 5573 5569 5566 5563 5560 5557 5553 5549 5546 5543 5539 5536 5532 5528 5524 5520 5516 5511 5508 5504 5501 5497
5703 5702 5699 5696 5695 5691 5690 5688 5685 5681 5677 5673 5669 5665 5661 5656 5652 5647 5641 5635 5627 5619 5613 5608 5604 5599 5593 5588 5583 5580 5577 5572 5569 5564 5561 5557 5554 5551 5547 5543 5539 5535 5531 5527 5523 5520 5516 5512 5509 5504 5500 5496 5492 5487
5705 5703 5701 5698 5696 5694 5692 5688 5685 5681 5678 5674 5670 5665 5661 5656 5650 5644 5637 5630 5624 5617 5611 5606 5601 5596 5591 5585 5580 5577 5573 5568 5564 5561 5557 5553 5550 5546 5542 5538 5534 5529 5525 5520 5516 5512 5507 5503 5499 5494 5490 5486 5481 5477
5705 5703 5701 5700 5698 5695 5692 5688 5685 5681 5678 5673 5669 5665 5659 5653 5647 5640 5634 5627 5620 5614 5609 5604 5599 5594 5588 5583 5578 5573 5570 5565 5561 5556 5553 5549 5545 5541 5537 5532 5528 5524 5519 5514 5510 5505 5500 5496 5491 5487 5482 5478 5474 5470
5708 5706 5703 5700 5697 5693 5690 5687 5683 5680 5676 5672 5668 5662 5656 5651 5646 5639 5632 5626 5619 5612 5606 5601 5597 5592 5586 5581 5576 5570 5565 5562 5557 5553 5548 5544 5540 5536 5532 5527 5522 5517 5513 5508 5503 5498 5493 5488 5483 5479 5475 5471 5467 5463
5707 5705 5702 5699 5696 5693 5690 5686 5682 5679 5675 5670 5665 5661 5655 5648 5642 5636 5630 5623 5617 5610 5604 5598 5593 5589 5584 5579 5574 5569 5563 5558 5553 5548 5543 5539 5534 5529 5526 5522 5517 5512 5507 5501 5496 5491 5486 5481 5476 5472 5468 5464 5461 5457